Year,Month,Day,Hour,Minute,Value (Times are PST for temperature in C)
2012,08,01,00,00,15.00
2012,08,01,00,01,15.00
2012,08,01,00,02,15.00
2012,08,01,00,03,15.00
2012,08,01,00,04,15.00
2012,08,01,00,05,15.00
2012,08,01,00,06,15.00
2012,08,01,00,07,15.00
2012,08,01,00,08,15.00
2012,08,01,00,09,15.00
2012,08,01,00,10,15.00
2012,08,01,00,11,15.00
2012,08,01,00,12,15.00
2012,08,01,00,13,15.00
2012,08,01,00,14,15.00
2012,08,01,00,15,15.00
2012,08,01,00,16,15.00
2012,08,01,00,17,15.00
2012,08,01,00,18,15.00
2012,08,01,00,19,15.00
2012,08,01,00,20,15.00
2012,08,01,00,21,15.00
2012,08,01,00,22,15.00
2012,08,01,00,23,15.00
2012,08,01,00,24,15.00
2012,08,01,00,25,15.00
2012,08,01,00,26,15.00
2012,08,01,00,27,15.00
2012,08,01,00,28,14.90
2012,08,01,00,29,14.90
2012,08,01,00,30,14.90
2012,08,01,00,31,14.80
2012,08,01,00,32,14.80
2012,08,01,00,33,14.80
2012,08,01,00,34,14.80
2012,08,01,00,35,14.70
2012,08,01,00,36,14.70
2012,08,01,00,37,14.70
2012,08,01,00,38,14.70
2012,08,01,00,39,14.70
2012,08,01,00,40,14.60
2012,08,01,00,41,14.60
2012,08,01,00,42,14.60
2012,08,01,00,43,14.60
2012,08,01,00,44,14.60
2012,08,01,00,45,14.60
2012,08,01,00,46,14.60
2012,08,01,00,47,14.60
2012,08,01,00,48,14.50
2012,08,01,00,49,14.50
2012,08,01,00,50,14.50
2012,08,01,00,51,14.50
2012,08,01,00,52,14.50
2012,08,01,00,53,14.50
2012,08,01,00,54,14.40
2012,08,01,00,55,14.40
2012,08,01,00,56,14.40
2012,08,01,00,57,14.40
2012,08,01,00,58,14.40
2012,08,01,00,59,14.40
2012,08,01,01,00,14.40
2012,08,01,01,01,14.40
2012,08,01,01,02,14.40
2012,08,01,01,03,14.40
2012,08,01,01,04,14.40
2012,08,01,01,05,14.40
2012,08,01,01,06,14.40
2012,08,01,01,07,14.30
2012,08,01,01,08,14.30
2012,08,01,01,09,14.30
2012,08,01,01,10,14.30
2012,08,01,01,11,14.30
2012,08,01,01,12,14.30
2012,08,01,01,13,14.30
2012,08,01,01,14,14.30
2012,08,01,01,15,14.30
2012,08,01,01,16,14.30
2012,08,01,01,17,14.30
2012,08,01,01,18,14.20
2012,08,01,01,19,14.20
2012,08,01,01,20,14.20
2012,08,01,01,21,14.20
2012,08,01,01,22,14.20
2012,08,01,01,23,14.20
2012,08,01,01,24,14.20
2012,08,01,01,25,14.20
2012,08,01,01,26,14.20
2012,08,01,01,27,14.20
2012,08,01,01,28,14.20
2012,08,01,01,29,14.20
2012,08,01,01,30,14.20
2012,08,01,01,31,14.20
2012,08,01,01,32,14.10
2012,08,01,01,33,14.10
2012,08,01,01,34,14.10
2012,08,01,01,35,14.10
2012,08,01,01,36,14.10
2012,08,01,01,37,14.10
2012,08,01,01,38,14.10
2012,08,01,01,39,14.10
2012,08,01,01,40,14.10
2012,08,01,01,41,14.10
2012,08,01,01,42,14.10
2012,08,01,01,43,14.10
2012,08,01,01,44,14.10
2012,08,01,01,45,14.10
2012,08,01,01,46,14.10
2012,08,01,01,47,14.10
2012,08,01,01,48,14.10
2012,08,01,01,49,14.10
2012,08,01,01,50,14.00
2012,08,01,01,51,14.00
2012,08,01,01,52,14.00
2012,08,01,01,53,14.00
2012,08,01,01,54,14.00
2012,08,01,01,55,14.00
2012,08,01,01,56,13.90
2012,08,01,01,57,13.90
2012,08,01,01,58,13.90
2012,08,01,01,59,13.90
2012,08,01,02,00,13.90
2012,08,01,02,01,13.90
2012,08,01,02,02,13.90
2012,08,01,02,03,13.90
2012,08,01,02,04,13.90
2012,08,01,02,05,13.90
2012,08,01,02,06,13.90
2012,08,01,02,07,13.90
2012,08,01,02,08,13.90
2012,08,01,02,09,13.90
2012,08,01,02,10,13.80
2012,08,01,02,11,13.80
2012,08,01,02,12,13.80
2012,08,01,02,13,13.80
2012,08,01,02,14,13.80
2012,08,01,02,15,13.80
2012,08,01,02,16,13.80
2012,08,01,02,17,13.90
2012,08,01,02,18,13.90
2012,08,01,02,19,13.90
2012,08,01,02,20,13.90
2012,08,01,02,21,13.90
2012,08,01,02,22,13.90
2012,08,01,02,23,13.90
2012,08,01,02,24,13.90
2012,08,01,02,25,13.90
2012,08,01,02,26,13.90
2012,08,01,02,27,13.90
2012,08,01,02,28,14.00
2012,08,01,02,29,14.00
2012,08,01,02,30,14.00
2012,08,01,02,31,14.10
2012,08,01,02,32,14.10
2012,08,01,02,33,14.10
2012,08,01,02,34,14.10
2012,08,01,02,35,14.20
2012,08,01,02,36,14.20
2012,08,01,02,37,14.20
2012,08,01,02,38,14.20
2012,08,01,02,39,14.20
2012,08,01,02,40,14.20
2012,08,01,02,41,14.10
2012,08,01,02,42,14.10
2012,08,01,02,43,14.10
2012,08,01,02,44,14.10
2012,08,01,02,45,14.10
2012,08,01,02,46,14.10
2012,08,01,02,47,14.10
2012,08,01,02,48,14.10
2012,08,01,02,49,14.10
2012,08,01,02,50,14.10
2012,08,01,02,51,14.00
2012,08,01,02,52,14.00
2012,08,01,02,53,14.00
2012,08,01,02,54,13.90
2012,08,01,02,55,13.90
2012,08,01,02,56,13.90
2012,08,01,02,57,13.90
2012,08,01,02,58,13.90
2012,08,01,02,59,13.90
2012,08,01,03,00,13.90
2012,08,01,03,01,13.80
2012,08,01,03,02,13.80
2012,08,01,03,03,13.80
2012,08,01,03,04,13.80
2012,08,01,03,05,13.80
2012,08,01,03,06,13.80
2012,08,01,03,07,13.80
2012,08,01,03,08,13.80
2012,08,01,03,09,13.80
2012,08,01,03,10,13.80
2012,08,01,03,11,13.80
2012,08,01,03,12,13.80
2012,08,01,03,13,13.70
2012,08,01,03,14,13.80
2012,08,01,03,15,13.80
2012,08,01,03,16,13.80
2012,08,01,03,17,13.80
2012,08,01,03,18,13.80
2012,08,01,03,19,13.80
2012,08,01,03,20,13.80
2012,08,01,03,21,13.80
2012,08,01,03,22,13.80
2012,08,01,03,23,13.80
2012,08,01,03,24,13.80
2012,08,01,03,25,13.80
2012,08,01,03,26,13.80
2012,08,01,03,27,13.80
2012,08,01,03,28,13.80
2012,08,01,03,29,13.80
2012,08,01,03,30,13.70
2012,08,01,03,31,13.70
2012,08,01,03,32,13.70
2012,08,01,03,33,13.70
2012,08,01,03,34,13.70
2012,08,01,03,35,13.70
2012,08,01,03,36,13.70
2012,08,01,03,37,13.70
2012,08,01,03,38,13.70
2012,08,01,03,39,13.70
2012,08,01,03,40,13.70
2012,08,01,03,41,13.70
2012,08,01,03,42,13.70
2012,08,01,03,43,13.70
2012,08,01,03,44,13.70
2012,08,01,03,45,13.70
2012,08,01,03,46,13.70
2012,08,01,03,47,13.70
2012,08,01,03,48,13.60
2012,08,01,03,49,13.60
2012,08,01,03,50,13.60
2012,08,01,03,51,13.60
2012,08,01,03,52,13.60
2012,08,01,03,53,13.60
2012,08,01,03,54,13.60
2012,08,01,03,55,13.60
2012,08,01,03,56,13.60
2012,08,01,03,57,13.60
2012,08,01,03,58,13.60
2012,08,01,03,59,13.50
2012,08,01,04,00,13.50
2012,08,01,04,01,13.50
2012,08,01,04,02,13.50
2012,08,01,04,03,13.50
2012,08,01,04,04,13.50
2012,08,01,04,05,13.40
2012,08,01,04,06,13.40
2012,08,01,04,07,13.40
2012,08,01,04,08,13.40
2012,08,01,04,09,13.40
2012,08,01,04,10,13.40
2012,08,01,04,11,13.40
2012,08,01,04,12,13.40
2012,08,01,04,13,13.40
2012,08,01,04,14,13.40
2012,08,01,04,15,13.40
2012,08,01,04,16,13.40
2012,08,01,04,17,13.40
2012,08,01,04,18,13.40
2012,08,01,04,19,13.40
2012,08,01,04,20,13.40
2012,08,01,04,21,13.30
2012,08,01,04,22,13.30
2012,08,01,04,23,13.30
2012,08,01,04,24,13.30
2012,08,01,04,25,13.30
2012,08,01,04,26,13.30
2012,08,01,04,27,13.30
2012,08,01,04,28,13.30
2012,08,01,04,29,13.30
2012,08,01,04,30,13.30
2012,08,01,04,31,13.30
2012,08,01,04,32,13.30
2012,08,01,04,33,13.30
2012,08,01,04,34,13.30
2012,08,01,04,35,13.30
2012,08,01,04,36,13.30
2012,08,01,04,37,13.30
2012,08,01,04,38,13.30
2012,08,01,04,39,13.30
2012,08,01,04,40,13.30
2012,08,01,04,41,13.30
2012,08,01,04,42,13.30
2012,08,01,04,43,13.30
2012,08,01,04,44,13.30
2012,08,01,04,45,13.30
2012,08,01,04,46,13.20
2012,08,01,04,47,13.20
2012,08,01,04,48,13.20
2012,08,01,04,49,13.20
2012,08,01,04,50,13.20
2012,08,01,04,51,13.20
2012,08,01,04,52,13.20
2012,08,01,04,53,13.20
2012,08,01,04,54,13.20
2012,08,01,04,55,13.20
2012,08,01,04,56,13.20
2012,08,01,04,57,13.20
2012,08,01,04,58,13.20
2012,08,01,04,59,13.20
2012,08,01,05,00,13.20
2012,08,01,05,01,13.20
2012,08,01,05,02,13.20
2012,08,01,05,03,13.20
2012,08,01,05,04,13.20
2012,08,01,05,05,13.20
2012,08,01,05,06,13.10
2012,08,01,05,07,13.10
2012,08,01,05,08,13.10
2012,08,01,05,09,13.10
2012,08,01,05,10,13.10
2012,08,01,05,11,13.10
2012,08,01,05,12,13.10
2012,08,01,05,13,13.10
2012,08,01,05,14,13.10
2012,08,01,05,15,13.00
2012,08,01,05,16,13.00
2012,08,01,05,17,13.00
2012,08,01,05,18,13.00
2012,08,01,05,19,13.00
2012,08,01,05,20,13.00
2012,08,01,05,21,13.00
2012,08,01,05,22,13.00
2012,08,01,05,23,12.90
2012,08,01,05,24,12.90
2012,08,01,05,25,12.90
2012,08,01,05,26,12.90
2012,08,01,05,27,12.90
2012,08,01,05,28,12.90
2012,08,01,05,29,12.90
2012,08,01,05,30,12.90
2012,08,01,05,31,12.90
2012,08,01,05,32,12.80
2012,08,01,05,33,12.90
2012,08,01,05,34,12.90
2012,08,01,05,35,12.90
2012,08,01,05,36,12.90
2012,08,01,05,37,12.90
2012,08,01,05,38,12.90
2012,08,01,05,39,12.90
2012,08,01,05,40,12.90
2012,08,01,05,41,12.90
2012,08,01,05,42,12.90
2012,08,01,05,43,12.90
2012,08,01,05,44,12.90
2012,08,01,05,45,12.90
2012,08,01,05,46,12.90
2012,08,01,05,47,12.90
2012,08,01,05,48,12.90
2012,08,01,05,49,12.90
2012,08,01,05,50,12.90
2012,08,01,05,51,12.90
2012,08,01,05,52,12.90
2012,08,01,05,53,13.00
2012,08,01,05,54,13.00
2012,08,01,05,55,13.00
2012,08,01,05,56,13.00
2012,08,01,05,57,13.00
2012,08,01,05,58,13.00
2012,08,01,05,59,13.00
2012,08,01,06,00,13.00
2012,08,01,06,01,13.00
2012,08,01,06,02,13.00
2012,08,01,06,03,13.00
2012,08,01,06,04,13.00
2012,08,01,06,05,13.00
2012,08,01,06,06,13.00
2012,08,01,06,07,13.00
2012,08,01,06,08,13.10
2012,08,01,06,09,13.10
2012,08,01,06,10,13.10
2012,08,01,06,11,13.10
2012,08,01,06,12,13.10
2012,08,01,06,13,13.10
2012,08,01,06,14,13.20
2012,08,01,06,15,13.20
2012,08,01,06,16,13.20
2012,08,01,06,17,13.20
2012,08,01,06,18,13.20
2012,08,01,06,19,13.30
2012,08,01,06,20,13.30
2012,08,01,06,21,13.30
2012,08,01,06,22,13.30
2012,08,01,06,23,13.30
2012,08,01,06,24,13.30
2012,08,01,06,25,13.30
2012,08,01,06,26,13.30
2012,08,01,06,27,13.40
2012,08,01,06,28,13.40
2012,08,01,06,29,13.40
2012,08,01,06,30,13.40
2012,08,01,06,31,13.40
2012,08,01,06,32,13.40
2012,08,01,06,33,13.40
2012,08,01,06,34,13.50
2012,08,01,06,35,13.50
2012,08,01,06,36,13.50
2012,08,01,06,37,13.50
2012,08,01,06,38,13.50
2012,08,01,06,39,13.60
2012,08,01,06,40,13.60
2012,08,01,06,41,13.60
2012,08,01,06,42,13.60
2012,08,01,06,43,13.60
2012,08,01,06,44,13.70
2012,08,01,06,45,13.70
2012,08,01,06,46,13.70
2012,08,01,06,47,13.70
2012,08,01,06,48,13.80
2012,08,01,06,49,13.80
2012,08,01,06,50,13.80
2012,08,01,06,51,13.90
2012,08,01,06,52,14.00
2012,08,01,06,53,14.00
2012,08,01,06,54,14.10
2012,08,01,06,55,14.20
2012,08,01,06,56,14.30
2012,08,01,06,57,14.30
2012,08,01,06,58,14.50
2012,08,01,06,59,14.60
2012,08,01,07,00,14.70
2012,08,01,07,01,14.80
2012,08,01,07,02,14.90
2012,08,01,07,03,15.00
2012,08,01,07,04,15.00
2012,08,01,07,05,15.00
2012,08,01,07,06,15.20
2012,08,01,07,07,15.30
2012,08,01,07,08,15.30
2012,08,01,07,09,15.40
2012,08,01,07,10,15.50
2012,08,01,07,11,15.50
2012,08,01,07,12,15.60
2012,08,01,07,13,15.60
2012,08,01,07,14,15.70
2012,08,01,07,15,15.70
2012,08,01,07,16,15.70
2012,08,01,07,17,15.80
2012,08,01,07,18,15.80
2012,08,01,07,19,15.80
2012,08,01,07,20,15.90
2012,08,01,07,21,15.90
2012,08,01,07,22,15.90
2012,08,01,07,23,15.90
2012,08,01,07,24,16.00
2012,08,01,07,25,16.00
2012,08,01,07,26,16.00
2012,08,01,07,27,16.00
2012,08,01,07,28,16.10
2012,08,01,07,29,16.10
2012,08,01,07,30,16.10
2012,08,01,07,31,16.10
2012,08,01,07,32,16.10
2012,08,01,07,33,16.10
2012,08,01,07,34,16.10
2012,08,01,07,35,16.20
2012,08,01,07,36,16.20
2012,08,01,07,37,16.20
2012,08,01,07,38,16.20
2012,08,01,07,39,16.20
2012,08,01,07,40,16.20
2012,08,01,07,41,16.30
2012,08,01,07,42,16.30
2012,08,01,07,43,16.30
2012,08,01,07,44,16.30
2012,08,01,07,45,16.30
2012,08,01,07,46,16.30
2012,08,01,07,47,16.40
2012,08,01,07,48,16.40
2012,08,01,07,49,16.40
2012,08,01,07,50,16.40
2012,08,01,07,51,16.40
2012,08,01,07,52,16.50
2012,08,01,07,53,16.50
2012,08,01,07,54,16.50
2012,08,01,07,55,16.50
2012,08,01,07,56,16.60
2012,08,01,07,57,16.60
2012,08,01,07,58,16.60
2012,08,01,07,59,16.60
2012,08,01,08,00,16.60
2012,08,01,08,01,16.60
2012,08,01,08,02,16.60
2012,08,01,08,03,16.60
2012,08,01,08,04,16.60
2012,08,01,08,05,16.70
2012,08,01,08,06,16.70
2012,08,01,08,07,16.70
2012,08,01,08,08,16.70
2012,08,01,08,09,16.70
2012,08,01,08,10,16.70
2012,08,01,08,11,16.70
2012,08,01,08,12,16.70
2012,08,01,08,13,16.70
2012,08,01,08,14,16.70
2012,08,01,08,15,16.70
2012,08,01,08,16,16.80
2012,08,01,08,17,16.80
2012,08,01,08,18,16.80
2012,08,01,08,19,16.90
2012,08,01,08,20,16.90
2012,08,01,08,21,16.90
2012,08,01,08,22,17.00
2012,08,01,08,23,17.00
2012,08,01,08,24,17.10
2012,08,01,08,25,17.10
2012,08,01,08,26,17.20
2012,08,01,08,27,17.30
2012,08,01,08,28,17.30
2012,08,01,08,29,17.40
2012,08,01,08,30,17.50
2012,08,01,08,31,17.50
2012,08,01,08,32,17.60
2012,08,01,08,33,17.70
2012,08,01,08,34,17.70
2012,08,01,08,35,17.80
2012,08,01,08,36,17.90
2012,08,01,08,37,18.00
2012,08,01,08,38,18.00
2012,08,01,08,39,18.10
2012,08,01,08,40,18.10
2012,08,01,08,41,18.20
2012,08,01,08,42,18.20
2012,08,01,08,43,18.20
2012,08,01,08,44,18.30
2012,08,01,08,45,18.40
2012,08,01,08,46,18.40
2012,08,01,08,47,18.40
2012,08,01,08,48,18.40
2012,08,01,08,49,18.40
2012,08,01,08,50,18.40
2012,08,01,08,51,18.40
2012,08,01,08,52,18.40
2012,08,01,08,53,18.40
2012,08,01,08,54,18.40
2012,08,01,08,55,18.40
2012,08,01,08,56,18.40
2012,08,01,08,57,18.30
2012,08,01,08,58,18.30
2012,08,01,08,59,18.30
2012,08,01,09,00,18.30
2012,08,01,09,01,18.30
2012,08,01,09,02,18.40
2012,08,01,09,03,18.40
2012,08,01,09,04,18.50
2012,08,01,09,05,18.50
2012,08,01,09,06,18.60
2012,08,01,09,07,18.50
2012,08,01,09,08,18.50
2012,08,01,09,09,18.50
2012,08,01,09,10,18.50
2012,08,01,09,11,18.60
2012,08,01,09,12,18.60
2012,08,01,09,13,18.60
2012,08,01,09,14,18.60
2012,08,01,09,15,18.70
2012,08,01,09,16,18.70
2012,08,01,09,17,18.60
2012,08,01,09,18,18.60
2012,08,01,09,19,18.60
2012,08,01,09,20,18.50
2012,08,01,09,21,18.50
2012,08,01,09,22,18.50
2012,08,01,09,23,18.50
2012,08,01,09,24,18.50
2012,08,01,09,25,18.50
2012,08,01,09,26,18.50
2012,08,01,09,27,18.60
2012,08,01,09,28,18.60
2012,08,01,09,29,18.60
2012,08,01,09,30,18.60
2012,08,01,09,31,18.60
2012,08,01,09,32,18.50
2012,08,01,09,33,18.50
2012,08,01,09,34,18.40
2012,08,01,09,35,18.50
2012,08,01,09,36,18.50
2012,08,01,09,37,18.50
2012,08,01,09,38,18.50
2012,08,01,09,39,18.50
2012,08,01,09,40,18.50
2012,08,01,09,41,18.40
2012,08,01,09,42,18.40
2012,08,01,09,43,18.40
2012,08,01,09,44,18.40
2012,08,01,09,45,18.40
2012,08,01,09,46,18.40
2012,08,01,09,47,18.40
2012,08,01,09,48,18.40
2012,08,01,09,49,18.50
2012,08,01,09,50,18.60
2012,08,01,09,51,18.60
2012,08,01,09,52,18.70
2012,08,01,09,53,18.70
2012,08,01,09,54,18.70
2012,08,01,09,55,18.70
2012,08,01,09,56,18.70
2012,08,01,09,57,18.70
2012,08,01,09,58,18.80
2012,08,01,09,59,18.80
2012,08,01,10,00,18.90
2012,08,01,10,01,18.90
2012,08,01,10,02,18.90
2012,08,01,10,03,19.00
2012,08,01,10,04,19.00
2012,08,01,10,05,19.10
2012,08,01,10,06,19.20
2012,08,01,10,07,19.20
2012,08,01,10,08,19.30
2012,08,01,10,09,19.30
2012,08,01,10,10,19.30
2012,08,01,10,11,19.30
2012,08,01,10,12,19.30
2012,08,01,10,13,19.20
2012,08,01,10,14,19.20
2012,08,01,10,15,19.10
2012,08,01,10,16,19.10
2012,08,01,10,17,19.20
2012,08,01,10,18,19.20
2012,08,01,10,19,19.30
2012,08,01,10,20,19.40
2012,08,01,10,21,19.50
2012,08,01,10,22,19.50
2012,08,01,10,23,19.50
2012,08,01,10,24,19.40
2012,08,01,10,25,19.30
2012,08,01,10,26,19.20
2012,08,01,10,27,19.20
2012,08,01,10,28,19.20
2012,08,01,10,29,19.20
2012,08,01,10,30,19.20
2012,08,01,10,31,19.30
2012,08,01,10,32,19.40
2012,08,01,10,33,19.50
2012,08,01,10,34,19.60
2012,08,01,10,35,19.60
2012,08,01,10,36,19.60
2012,08,01,10,37,19.60
2012,08,01,10,38,19.60
2012,08,01,10,39,19.60
2012,08,01,10,40,19.60
2012,08,01,10,41,19.70
2012,08,01,10,42,19.70
2012,08,01,10,43,19.80
2012,08,01,10,44,19.80
2012,08,01,10,45,19.90
2012,08,01,10,46,19.90
2012,08,01,10,47,20.00
2012,08,01,10,48,20.00
2012,08,01,10,49,20.10
2012,08,01,10,50,20.10
2012,08,01,10,51,20.10
2012,08,01,10,52,20.10
2012,08,01,10,53,20.00
2012,08,01,10,54,20.00
2012,08,01,10,55,20.00
2012,08,01,10,56,20.00
2012,08,01,10,57,20.10
2012,08,01,10,58,20.10
2012,08,01,10,59,20.10
2012,08,01,11,00,20.10
2012,08,01,11,01,20.10
2012,08,01,11,02,20.10
2012,08,01,11,03,20.20
2012,08,01,11,04,20.20
2012,08,01,11,05,20.20
2012,08,01,11,06,20.20
2012,08,01,11,07,20.20
2012,08,01,11,08,20.10
2012,08,01,11,09,20.10
2012,08,01,11,10,20.10
2012,08,01,11,11,20.20
2012,08,01,11,12,20.20
2012,08,01,11,13,20.20
2012,08,01,11,14,20.30
2012,08,01,11,15,20.40
2012,08,01,11,16,20.40
2012,08,01,11,17,20.50
2012,08,01,11,18,20.50
2012,08,01,11,19,20.50
2012,08,01,11,20,20.50
2012,08,01,11,21,20.60
2012,08,01,11,22,20.60
2012,08,01,11,23,20.60
2012,08,01,11,24,20.60
2012,08,01,11,25,20.60
2012,08,01,11,26,20.60
2012,08,01,11,27,20.60
2012,08,01,11,28,20.60
2012,08,01,11,29,20.60
2012,08,01,11,30,20.60
2012,08,01,11,31,20.60
2012,08,01,11,32,20.60
2012,08,01,11,33,20.60
2012,08,01,11,34,20.60
2012,08,01,11,35,20.60
2012,08,01,11,36,20.60
2012,08,01,11,37,20.60
2012,08,01,11,38,20.60
2012,08,01,11,39,20.60
2012,08,01,11,40,20.50
2012,08,01,11,41,20.50
2012,08,01,11,42,20.40
2012,08,01,11,43,20.40
2012,08,01,11,44,20.40
2012,08,01,11,45,20.50
2012,08,01,11,46,20.60
2012,08,01,11,47,20.60
2012,08,01,11,48,20.60
2012,08,01,11,49,20.60
2012,08,01,11,50,20.60
2012,08,01,11,51,20.50
2012,08,01,11,52,20.60
2012,08,01,11,53,20.60
2012,08,01,11,54,20.60
2012,08,01,11,55,20.60
2012,08,01,11,56,20.60
2012,08,01,11,57,20.60
2012,08,01,11,58,20.60
2012,08,01,11,59,20.60
2012,08,01,12,00,20.60
2012,08,01,12,01,20.70
2012,08,01,12,02,20.80
2012,08,01,12,03,20.90
2012,08,01,12,04,20.90
2012,08,01,12,05,20.90
2012,08,01,12,06,20.90
2012,08,01,12,07,20.90
2012,08,01,12,08,20.90
2012,08,01,12,09,20.90
2012,08,01,12,10,21.00
2012,08,01,12,11,21.10
2012,08,01,12,12,21.20
2012,08,01,12,13,21.20
2012,08,01,12,14,21.20
2012,08,01,12,15,21.30
2012,08,01,12,16,21.30
2012,08,01,12,17,21.40
2012,08,01,12,18,21.60
2012,08,01,12,19,21.70
2012,08,01,12,20,21.80
2012,08,01,12,21,21.80
2012,08,01,12,22,21.80
2012,08,01,12,23,21.90
2012,08,01,12,24,22.00
2012,08,01,12,25,22.00
2012,08,01,12,26,21.90
2012,08,01,12,27,21.80
2012,08,01,12,28,21.80
2012,08,01,12,29,21.70
2012,08,01,12,30,21.60
2012,08,01,12,31,21.60
2012,08,01,12,32,21.60
2012,08,01,12,33,21.70
2012,08,01,12,34,21.70
2012,08,01,12,35,21.70
2012,08,01,12,36,21.70
2012,08,01,12,37,21.70
2012,08,01,12,38,21.70
2012,08,01,12,39,21.60
2012,08,01,12,40,21.50
2012,08,01,12,41,21.40
2012,08,01,12,42,21.40
2012,08,01,12,43,21.40
2012,08,01,12,44,21.40
2012,08,01,12,45,21.40
2012,08,01,12,46,21.40
2012,08,01,12,47,21.40
2012,08,01,12,48,21.40
2012,08,01,12,49,21.50
2012,08,01,12,50,21.50
2012,08,01,12,51,21.40
2012,08,01,12,52,21.30
2012,08,01,12,53,21.30
2012,08,01,12,54,21.20
2012,08,01,12,55,21.20
2012,08,01,12,56,21.20
2012,08,01,12,57,21.20
2012,08,01,12,58,21.20
2012,08,01,12,59,21.20
2012,08,01,13,00,21.20
2012,08,01,13,01,21.20
2012,08,01,13,02,21.20
2012,08,01,13,03,21.20
2012,08,01,13,04,21.20
2012,08,01,13,05,21.20
2012,08,01,13,06,21.20
2012,08,01,13,07,21.30
2012,08,01,13,08,21.30
2012,08,01,13,09,21.40
2012,08,01,13,10,21.50
2012,08,01,13,11,21.40
2012,08,01,13,12,21.40
2012,08,01,13,13,21.40
2012,08,01,13,14,21.40
2012,08,01,13,15,21.40
2012,08,01,13,16,21.40
2012,08,01,13,17,21.40
2012,08,01,13,18,21.40
2012,08,01,13,19,21.40
2012,08,01,13,20,21.40
2012,08,01,13,21,21.40
2012,08,01,13,22,21.40
2012,08,01,13,23,21.40
2012,08,01,13,24,21.40
2012,08,01,13,25,21.40
2012,08,01,13,26,21.30
2012,08,01,13,27,21.20
2012,08,01,13,28,21.20
2012,08,01,13,29,21.20
2012,08,01,13,30,21.10
2012,08,01,13,31,21.10
2012,08,01,13,32,21.20
2012,08,01,13,33,21.30
2012,08,01,13,34,21.40
2012,08,01,13,35,21.40
2012,08,01,13,36,21.40
2012,08,01,13,37,21.40
2012,08,01,13,38,21.30
2012,08,01,13,39,21.30
2012,08,01,13,40,21.20
2012,08,01,13,41,21.30
2012,08,01,13,42,21.30
2012,08,01,13,43,21.20
2012,08,01,13,44,21.20
2012,08,01,13,45,21.30
2012,08,01,13,46,21.40
2012,08,01,13,47,21.40
2012,08,01,13,48,21.50
2012,08,01,13,49,21.60
2012,08,01,13,50,21.60
2012,08,01,13,51,21.50
2012,08,01,13,52,21.30
2012,08,01,13,53,21.30
2012,08,01,13,54,21.30
2012,08,01,13,55,21.30
2012,08,01,13,56,21.40
2012,08,01,13,57,21.40
2012,08,01,13,58,21.50
2012,08,01,13,59,21.70
2012,08,01,14,00,21.70
2012,08,01,14,01,21.70
2012,08,01,14,02,21.80
2012,08,01,14,03,21.80
2012,08,01,14,04,21.80
2012,08,01,14,05,21.80
2012,08,01,14,06,21.80
2012,08,01,14,07,21.80
2012,08,01,14,08,21.80
2012,08,01,14,09,21.80
2012,08,01,14,10,21.80
2012,08,01,14,11,21.80
2012,08,01,14,12,21.80
2012,08,01,14,13,21.80
2012,08,01,14,14,21.80
2012,08,01,14,15,21.80
2012,08,01,14,16,21.70
2012,08,01,14,17,21.60
2012,08,01,14,18,21.70
2012,08,01,14,19,21.80
2012,08,01,14,20,21.80
2012,08,01,14,21,21.90
2012,08,01,14,22,22.00
2012,08,01,14,23,22.00
2012,08,01,14,24,21.90
2012,08,01,14,25,21.80
2012,08,01,14,26,21.80
2012,08,01,14,27,21.80
2012,08,01,14,28,21.80
2012,08,01,14,29,21.80
2012,08,01,14,30,21.90
2012,08,01,14,31,21.90
2012,08,01,14,32,21.90
2012,08,01,14,33,22.00
2012,08,01,14,34,22.10
2012,08,01,14,35,22.20
2012,08,01,14,36,22.30
2012,08,01,14,37,22.30
2012,08,01,14,38,22.40
2012,08,01,14,39,22.50
2012,08,01,14,40,22.60
2012,08,01,14,41,22.50
2012,08,01,14,42,22.50
2012,08,01,14,43,22.60
2012,08,01,14,44,22.60
2012,08,01,14,45,22.70
2012,08,01,14,46,22.70
2012,08,01,14,47,22.70
2012,08,01,14,48,22.70
2012,08,01,14,49,22.70
2012,08,01,14,50,22.70
2012,08,01,14,51,22.80
2012,08,01,14,52,22.90
2012,08,01,14,53,23.00
2012,08,01,14,54,23.10
2012,08,01,14,55,23.00
2012,08,01,14,56,22.90
2012,08,01,14,57,22.90
2012,08,01,14,58,22.90
2012,08,01,14,59,22.90
2012,08,01,15,00,22.90
2012,08,01,15,01,22.90
2012,08,01,15,02,22.90
2012,08,01,15,03,23.00
2012,08,01,15,04,23.00
2012,08,01,15,05,23.00
2012,08,01,15,06,23.00
2012,08,01,15,07,23.00
2012,08,01,15,08,22.90
2012,08,01,15,09,22.80
2012,08,01,15,10,22.80
2012,08,01,15,11,22.80
2012,08,01,15,12,22.80
2012,08,01,15,13,22.80
2012,08,01,15,14,22.80
2012,08,01,15,15,22.80
2012,08,01,15,16,22.80
2012,08,01,15,17,22.80
2012,08,01,15,18,22.80
2012,08,01,15,19,22.80
2012,08,01,15,20,22.80
2012,08,01,15,21,22.80
2012,08,01,15,22,22.70
2012,08,01,15,23,22.70
2012,08,01,15,24,22.70
2012,08,01,15,25,22.70
2012,08,01,15,26,22.70
2012,08,01,15,27,22.70
2012,08,01,15,28,22.60
2012,08,01,15,29,22.60
2012,08,01,15,30,22.70
2012,08,01,15,31,22.70
2012,08,01,15,32,22.70
2012,08,01,15,33,22.70
2012,08,01,15,34,22.70
2012,08,01,15,35,22.70
2012,08,01,15,36,22.60
2012,08,01,15,37,22.60
2012,08,01,15,38,22.60
2012,08,01,15,39,22.50
2012,08,01,15,40,22.40
2012,08,01,15,41,22.50
2012,08,01,15,42,22.40
2012,08,01,15,43,22.40
2012,08,01,15,44,22.30
2012,08,01,15,45,22.30
2012,08,01,15,46,22.40
2012,08,01,15,47,22.40
2012,08,01,15,48,22.40
2012,08,01,15,49,22.40
2012,08,01,15,50,22.30
2012,08,01,15,51,22.30
2012,08,01,15,52,22.30
2012,08,01,15,53,22.30
2012,08,01,15,54,22.30
2012,08,01,15,55,22.30
2012,08,01,15,56,22.30
2012,08,01,15,57,22.30
2012,08,01,15,58,22.30
2012,08,01,15,59,22.30
2012,08,01,16,00,22.30
2012,08,01,16,01,22.20
2012,08,01,16,02,22.20
2012,08,01,16,03,22.10
2012,08,01,16,04,22.10
2012,08,01,16,05,22.00
2012,08,01,16,06,22.00
2012,08,01,16,07,22.00
2012,08,01,16,08,22.00
2012,08,01,16,09,22.10
2012,08,01,16,10,22.10
2012,08,01,16,11,22.10
2012,08,01,16,12,22.10
2012,08,01,16,13,22.10
2012,08,01,16,14,22.20
2012,08,01,16,15,22.20
2012,08,01,16,16,22.20
2012,08,01,16,17,22.20
2012,08,01,16,18,22.20
2012,08,01,16,19,22.20
2012,08,01,16,20,22.20
2012,08,01,16,21,22.20
2012,08,01,16,22,22.10
2012,08,01,16,23,22.10
2012,08,01,16,24,22.00
2012,08,01,16,25,22.00
2012,08,01,16,26,22.00
2012,08,01,16,27,21.90
2012,08,01,16,28,21.90
2012,08,01,16,29,21.80
2012,08,01,16,30,21.80
2012,08,01,16,31,21.80
2012,08,01,16,32,21.80
2012,08,01,16,33,21.70
2012,08,01,16,34,21.70
2012,08,01,16,35,21.50
2012,08,01,16,36,21.50
2012,08,01,16,37,21.40
2012,08,01,16,38,21.30
2012,08,01,16,39,21.20
2012,08,01,16,40,21.20
2012,08,01,16,41,21.20
2012,08,01,16,42,21.20
2012,08,01,16,43,21.20
2012,08,01,16,44,21.20
2012,08,01,16,45,21.20
2012,08,01,16,46,21.30
2012,08,01,16,47,21.30
2012,08,01,16,48,21.30
2012,08,01,16,49,21.30
2012,08,01,16,50,21.20
2012,08,01,16,51,21.10
2012,08,01,16,52,21.10
2012,08,01,16,53,21.10
2012,08,01,16,54,21.10
2012,08,01,16,55,21.10
2012,08,01,16,56,21.10
2012,08,01,16,57,21.00
2012,08,01,16,58,20.90
2012,08,01,16,59,20.90
2012,08,01,17,00,20.90
2012,08,01,17,01,20.80
2012,08,01,17,02,20.80
2012,08,01,17,03,20.70
2012,08,01,17,04,20.70
2012,08,01,17,05,20.70
2012,08,01,17,06,20.70
2012,08,01,17,07,20.60
2012,08,01,17,08,20.70
2012,08,01,17,09,20.70
2012,08,01,17,10,20.70
2012,08,01,17,11,20.70
2012,08,01,17,12,20.70
2012,08,01,17,13,20.70
2012,08,01,17,14,20.80
2012,08,01,17,15,20.80
2012,08,01,17,16,20.80
2012,08,01,17,17,20.90
2012,08,01,17,18,20.90
2012,08,01,17,19,21.00